This is the latest recevied weather packets stored in our database for station/object OE5HCE. If no packets are shown the sender has not sent any weather packets the latest 10 day(s).
| Time | Temp. | Humidity | Pressure | Rain* | Wind** | Luminosity | Snow |
|---|---|---|---|---|---|---|---|
| 1777643165 | 20.56° C | 37% | 1028.5 hPa | 0 mm | - | 640 W/m² | - |
| 1777642260 | 20° C | 37% | 1028.6 hPa | 0 mm | - | 666 W/m² | - |
| 1777641363 | 19.44° C | 39% | 1028.8 hPa | 0 mm | - | 693 W/m² | - |
| 1777640453 | 19.44° C | 38% | 1029 hPa | 0 mm | - | 712 W/m² | - |
| 1777639550 | 18.89° C | 41% | 1029 hPa | 0 mm | - | 735 W/m² | - |
| 1777638669 | 18.89° C | 40% | 1029.2 hPa | 0 mm | - | 756 W/m² | - |
| 1777637744 | 18.33° C | 41% | 1029.5 hPa | 0 mm | - | 772 W/m² | - |
| 1777636844 | 18.33° C | 42% | 1029.6 hPa | 0 mm | - | 652 W/m² | - |
| 1777635942 | 17.78° C | 42% | 1029.7 hPa | 0 mm | - | 788 W/m² | - |
| 1777635039 | 17.78° C | 42% | 1029.9 hPa | 0 mm | - | 795 W/m² | - |
| 1777634135 | 17.22° C | 44% | 1030.1 hPa | 0 mm | - | 661 W/m² | - |
| 1777633234 | 16.67° C | 42% | 1030.2 hPa | 0 mm | - | 800 W/m² | - |
| 1777632337 | 16.67° C | 43% | 1030.3 hPa | 0 mm | - | 795 W/m² | - |
| 1777631434 | 16.67° C | 43% | 1030.4 hPa | 0 mm | - | 791 W/m² | - |
| 1777630527 | 16.67° C | 42% | 1030.4 hPa | 0 mm | - | 779 W/m² | - |
| 1777629623 | 15.56° C | 43% | 1030.5 hPa | 0 mm | - | 766 W/m² | - |
| 1777628720 | 15.56° C | 43% | 1030.6 hPa | 0 mm | - | 754 W/m² | - |
| 1777627816 | 15° C | 44% | 1030.7 hPa | 0 mm | - | 735 W/m² | - |
| 1777626912 | 14.44° C | 43% | 1030.9 hPa | 0 mm | - | 714 W/m² | - |
| 1777626008 | 13.89° C | 45% | 1030.9 hPa | 0 mm | - | 445 W/m² | - |
| 1777625104 | 13.33° C | 44% | 1031 hPa | 0 mm | - | 302 W/m² | - |
| 1777624259 | 12.78° C | 46% | 1031.1 hPa | 0 mm | - | 33 W/m² | - |
| 1777623356 | 12.22° C | 49% | 1031.1 hPa | 0 mm | - | 32 W/m² | - |
| 1777622451 | 11.67° C | 49% | 1031.3 hPa | 0 mm | - | 32 W/m² | - |
| 1777621550 | 10.56° C | 50% | 1031.3 hPa | 0 mm | - | 32 W/m² | - |
* Rain latest hour (hover to see other rain measurements)
** Current wind speed in m/s (hover to see current wind gust speed)